Zurück zum Katalog

STARLINK-32575

AktivKommunikationVLEO
NORAD 62173·PAYLOAD·🇺🇸 United States

Gestartet Nov 30, 2024 von Vandenberg Space Force Base

Loading…

Nächste Überflüge (nächste 24 Stunden)

TLE

AktuellSource: CelesTrak SupGP

Epoche: Sep 15, 2026, 02:44 UTC

1 62173C 24225L   26258.11437500  .00000862  00000+0  29984-4 0  2587
2 62173  70.0014  35.3316 0003384 268.6415 209.4543 15.29575189    14

Verfolge STARLINK-32575 in Echtzeit mit AllMySat

Download on the App Store